UAL1783 KLAX-KBOS

Flight info

Callsign UAL1783
Flight time N/A
Altitude 33000
Route DOTSS2 CLEEE PKE J96 CIM SLN/N0453F350 IRK JOT J146 GIJ J554 JHW Q82 PONCT JFUND2
Aircraft B739/M-SDE2E3FGHIRWXY/LB1

Departure

Time 2026-04-25 19:01
Airport Los Angeles International Airport (KLAX)

Arrival

Time N/A
Airport Boston Logan International Airport (KBOS)
Time Latitude Longitude Altitude Speed Heading
2026-04-25 18:49 33.94140 -118.39833 92 ft 4 kts 173°
2026-04-25 18:49 33.94113 -118.39829 93 ft 4 kts 173°
2026-04-25 18:49 33.94087 -118.39825 93 ft 3 kts 173°
2026-04-25 18:50 33.94066 -118.39827 92 ft 4 kts 192°
2026-04-25 18:50 33.94042 -118.39828 94 ft 1 kts 173°
2026-04-25 18:50 33.94041 -118.39827 94 ft 1 kts 173°
2026-04-25 18:55 33.94040 -118.39827 92 ft 2 kts 173°
2026-04-25 18:55 33.93999 -118.39821 94 ft 9 kts 172°
2026-04-25 18:55 33.93936 -118.39806 94 ft 9 kts 162°
2026-04-25 18:56 33.93911 -118.39731 94 ft 12 kts 89°
2026-04-25 18:56 33.93917 -118.39619 94 ft 15 kts 85°
2026-04-25 18:56 33.93931 -118.39481 94 ft 19 kts 83°
2026-04-25 18:56 33.93949 -118.39309 92 ft 22 kts 83°
2026-04-25 18:57 33.93969 -118.39117 93 ft 24 kts 83°
2026-04-25 18:57 33.93991 -118.38904 93 ft 27 kts 83°
2026-04-25 18:57 33.94013 -118.38686 96 ft 26 kts 82°
2026-04-25 18:57 33.94028 -118.38545 95 ft 25 kts 83°
2026-04-25 18:58 33.94053 -118.38285 96 ft 23 kts 83°
2026-04-25 18:58 33.94076 -118.38031 92 ft 1 kts 105°
2026-04-25 18:58 33.94064 -118.38012 93 ft 9 kts 138°
2026-04-25 18:59 33.93974 -118.38099 93 ft 9 kts 264°
2026-04-25 18:59 33.93924 -118.38607 98 ft 84 kts 263°
2026-04-25 19:00 33.93673 -118.40924 138 ft 183 kts 264°
2026-04-25 19:00 33.93534 -118.42486 690 ft 189 kts 259°
2026-04-25 19:01 33.93202 -118.45721 2032 ft 201 kts 261°
2026-04-25 19:01 33.92774 -118.47400 2097 ft 223 kts 233°
2026-04-25 19:01 33.91630 -118.48756 2305 ft 242 kts 219°
2026-04-25 19:01 33.90361 -118.50157 2821 ft 249 kts 226°
2026-04-25 19:02 33.88054 -118.53358 4151 ft 258 kts 229°
2026-04-25 19:02 33.86852 -118.54970 4848 ft 260 kts 219°
2026-04-25 19:02 33.85229 -118.55889 5485 ft 263 kts 191°
2026-04-25 19:03 33.82750 -118.55691 6247 ft 274 kts 170°
2026-04-25 19:03 33.79629 -118.54803 7304 ft 278 kts 169°
2026-04-25 19:03 33.77740 -118.54265 8058 ft 280 kts 169°
2026-04-25 19:04 33.73919 -118.53219 9879 ft 283 kts 171°
2026-04-25 19:04 33.71991 -118.52692 10477 ft 289 kts 169°
2026-04-25 19:05 33.68779 -118.49311 10749 ft 349 kts 116°
2026-04-25 19:05 33.67115 -118.43478 11212 ft 385 kts 112°
2026-04-25 19:05 33.66251 -118.40401 11704 ft 392 kts 113°
2026-04-25 19:06 33.65346 -118.37298 12197 ft 396 kts 114°
2026-04-25 19:06 33.64304 -118.30707 13089 ft 416 kts 92°
2026-04-25 19:06 33.64360 -118.27257 13578 ft 420 kts 92°
2026-04-25 19:07 33.64440 -118.20172 14429 ft 428 kts 93°
2026-04-25 19:07 33.64458 -118.16587 14937 ft 430 kts 93°
2026-04-25 19:08 33.64465 -118.09372 15971 ft 435 kts 93°
2026-04-25 19:08 33.64462 -118.05727 16407 ft 438 kts 93°
2026-04-25 19:09 33.64445 -117.94677 17744 ft 445 kts 93°
2026-04-25 19:09 33.64440 -117.92217 18007 ft 447 kts 93°
2026-04-25 19:09 33.64421 -117.83435 18850 ft 453 kts 93°
2026-04-25 19:10 33.64430 -117.79643 19208 ft 457 kts 90°
2026-04-25 19:10 33.64867 -117.75847 19551 ft 462 kts 79°
2026-04-25 19:10 33.65615 -117.72080 19923 ft 465 kts 77°
2026-04-25 19:10 33.66424 -117.68306 20294 ft 468 kts 77°
2026-04-25 19:11 33.67233 -117.64508 20657 ft 471 kts 77°
2026-04-25 19:11 33.68020 -117.60678 20994 ft 474 kts 78°
2026-04-25 19:11 33.68786 -117.56817 21335 ft 476 kts 78°
2026-04-25 19:11 33.69535 -117.52939 21686 ft 478 kts 79°
2026-04-25 19:12 33.70270 -117.49082 21979 ft 481 kts 79°
2026-04-25 19:12 33.71014 -117.45158 22288 ft 483 kts 79°
2026-04-25 19:12 33.71759 -117.41221 22670 ft 483 kts 79°
2026-04-25 19:12 33.72505 -117.37281 22978 ft 486 kts 78°
2026-04-25 19:13 33.73257 -117.33311 23262 ft 489 kts 78°
2026-04-25 19:13 33.74016 -117.29308 23604 ft 492 kts 79°
2026-04-25 19:13 33.74775 -117.25291 23874 ft 494 kts 79°
2026-04-25 19:13 33.75302 -117.21217 24120 ft 494 kts 91°
2026-04-25 19:14 33.75247 -117.17099 24384 ft 493 kts 96°
2026-04-25 19:14 33.75187 -117.15712 24485 ft 493 kts 96°
2026-04-25 19:14 33.74879 -117.08844 24991 ft 497 kts 96°
2026-04-25 19:14 33.74749 -117.04685 25219 ft 500 kts 95°
2026-04-25 19:15 33.74656 -117.00499 25449 ft 503 kts 94°
2026-04-25 19:15 33.74576 -116.96293 25701 ft 505 kts 94°
2026-04-25 19:15 33.74490 -116.92070 25948 ft 507 kts 94°
2026-04-25 19:15 33.74396 -116.87828 26183 ft 509 kts 95°
2026-04-25 19:16 33.74297 -116.83575 26425 ft 510 kts 95°
2026-04-25 19:16 33.74196 -116.79313 26677 ft 512 kts 95°
2026-04-25 19:16 33.74093 -116.75026 26909 ft 514 kts 95°
2026-04-25 19:16 33.73990 -116.70774 27107 ft 517 kts 95°
2026-04-25 19:17 33.73883 -116.66389 27314 ft 519 kts 95°
2026-04-25 19:17 33.73776 -116.62045 27556 ft 521 kts 95°
2026-04-25 19:17 33.73667 -116.57702 27894 ft 521 kts 95°
2026-04-25 19:17 33.73558 -116.53352 28150 ft 521 kts 95°
2026-04-25 19:18 33.73447 -116.48981 28300 ft 525 kts 95°
2026-04-25 19:18 33.73332 -116.44597 28565 ft 525 kts 95°
2026-04-25 19:18 33.73224 -116.40226 28928 ft 523 kts 95°
2026-04-25 19:18 33.73108 -116.35862 29240 ft 523 kts 95°
2026-04-25 19:19 33.72987 -116.31550 29495 ft 525 kts 95°
2026-04-25 19:19 33.72864 -116.27169 29791 ft 525 kts 95°
2026-04-25 19:19 33.72741 -116.22785 30097 ft 525 kts 95°
2026-04-25 19:20 33.72495 -116.14022 30595 ft 525 kts 95°
2026-04-25 19:20 33.72374 -116.09639 30829 ft 526 kts 94°
2026-04-25 19:20 33.72688 -116.05248 31003 ft 532 kts 76°
2026-04-25 19:20 33.73821 -116.01016 31255 ft 532 kts 71°